VA5EVR-13 Weather Reports


time (UTC)temp
C
wind
direction
speed
KPH
gust
KPH
rain 1hr
cm
rain 24hr
cm
rain mn
cm
humidity
%
barometer
mb
20260502233011 17 22 17.7 17.7 0.00 0.00 0.00 39 88.8
20260502232011 17 292 11.3 11.3 0.00 0.00 0.00 38 88.8
20260502231011 17 338 17.7 17.7 0.00 0.00 0.00 39 88.8
20260502230011 18 270 14.5 14.5 0.00 0.00 0.00 38 88.8
20260502225012 17 315 19.3 19.3 0.00 0.00 0.00 38 88.8
20260502224011 17 338 14.5 14.5 0.00 0.00 0.00 39 88.8
20260502223011 18 315 16.1 16.1 0.00 0.00 0.00 39 88.8
20260502222012 18 270 14.5 14.5 0.00 0.00 0.00 39 88.8
20260502221012 18 270 19.3 19.3 0.00 0.00 0.00 38 88.8
20260502220012 18 315 16.1 16.1 0.00 0.00 0.00 38 88.8
20260502214012 18 270 14.5 14.5 0.00 0.00 0.00 39 88.8
20260502213011 18 270 19.3 19.3 0.00 0.00 0.00 38 88.8
20260502212011 17 0 17.7 17.7 0.00 0.00 0.00 40 88.8
20260502211012 18 315 12.9 12.9 0.00 0.00 0.00 41 88.8
20260502210012 17 338 25.7 25.7 0.00 0.00 0.00 40 88.8
20260502205012 17 22 12.9 12.9 0.00 0.00 0.00 43 88.8
20260502204011 18 338 12.9 12.9 0.00 0.00 0.00 42 88.8
20260502203011 18 338 17.7 17.7 0.00 0.00 0.00 42 88.8
20260502202012 18 292 16.1 16.1 0.00 0.00 0.00 41 88.8
20260502201011 17 292 25.7 25.7 0.00 0.00 0.00 41 88.8
20260502200011 16 315 19.3 19.3 0.00 0.00 0.00 44 88.8
20260502195011 16 0 11.3 11.3 0.00 0.00 0.00 46 88.8
20260502194011 16 315 9.7 9.7 0.00 0.00 0.00 48 88.8
20260502193011 16 292 20.9 20.9 0.00 0.00 0.00 45 88.8
20260502192011 16 270 11.3 11.3 0.00 0.00 0.00 46 88.8
20260502191011 16 22 19.3 19.3 0.00 0.00 0.00 46 88.8
20260502190011 16 338 12.9 12.9 0.00 0.00 0.00 44 88.8
20260502185012 16 0 14.5 14.5 0.00 0.00 0.00 46 88.8
20260502184012 16 22 17.7 17.7 0.00 0.00 0.00 46 88.8
20260502183012 16 22 20.9 20.9 0.00 0.00 0.00 46 88.8
20260502181012 16 22 9.7 9.7 0.00 0.00 0.00 46 88.8
20260502164012 14 90 8.0 8.0 0.00 0.00 0.00 49 88.8
20260502163012 13 22 12.9 12.9 0.00 0.00 0.00 51 88.8
20260502162012 13 0 9.7 9.7 0.00 0.00 0.00 54 88.8
20260502161011 13 22 14.5 14.5 0.00 0.00 0.00 55 88.8
20260502152012 13 338 11.3 11.3 0.00 0.00 0.00 62 88.8
20260502151011 13 22 12.9 12.9 0.00 0.00 0.00 64 88.8
20260502123011 5 22 11.3 11.3 0.00 0.00 0.00 81 88.8
20260502122011 4 338 12.9 12.9 0.00 0.00 0.00 82 88.8
20260502121011 4 0 12.9 12.9 0.00 0.00 0.00 83 88.8
20260502115012 3 315 9.7 9.7 0.00 0.00 0.00 84 88.8
20260502114011 3 22 11.3 11.3 0.00 0.00 0.00 83 88.8
20260502113012 4 338 9.7 9.7 0.00 0.00 0.00 83 88.8
20260502112012 4 0 9.7 9.7 0.00 0.00 0.00 82 88.8
20260502111011 5 338 11.3 11.3 0.00 0.00 0.00 80 88.8
20260502110011 5 0 11.3 11.3 0.00 0.00 0.00 80 88.8
20260502105012 5 338 11.3 11.3 0.00 0.00 0.00 79 88.8
20260502104012 6 0 8.0 8.0 0.00 0.00 0.00 78 88.8
20260502103011 6 338 12.9 12.9 0.00 0.00 0.00 78 88.8
20260502102011 6 22 11.3 11.3 0.00 0.00 0.00 77 88.8
20260502101012 6 0 12.9 12.9 0.00 0.00 0.00 77 88.8
20260502091012 7 315 11.3 11.3 0.00 0.00 0.00 73 88.8
20260502071012 12 0 19.3 19.3 0.00 0.00 0.00 62 88.8
20260502070012 12 338 22.5 22.5 0.00 0.00 0.00 60 88.8
20260502065011 12 338 29.0 29.0 0.00 0.00 0.00 60 88.8
20260502064012 12 0 19.3 19.3 0.00 0.00 0.00 60 88.8
20260502063012 12 22 19.3 19.3 0.00 0.00 0.00 60 88.8
20260502062011 12 0 16.1 16.1 0.00 0.00 0.00 60 88.8
20260502061012 12 315 14.5 14.5 0.00 0.00 0.00 60 88.8
20260502060012 12 338 14.5 14.5 0.00 0.00 0.00 60 88.8
20260502055011 12 0 11.3 11.3 0.00 0.00 0.00 60 88.8
20260502054011 12 315 12.9 12.9 0.00 0.00 0.00 60 88.8
20260502053012 12 0 17.7 17.7 0.00 0.00 0.00 61 88.8
20260502052012 12 338 9.7 9.7 0.00 0.00 0.00 61 88.8
20260502051011 12 22 8.0 8.0 0.00 0.00 0.00 61 88.8
20260502050011 12 0 8.0 8.0 0.00 0.00 0.00 60 88.8
20260502045011 12 22 12.9 12.9 0.00 0.00 0.00 59 88.8
20260502044011 12 22 14.5 14.5 0.00 0.00 0.00 58 88.8
20260502043012 12 22 12.9 12.9 0.00 0.00 0.00 56 88.8
20260502042011 12 22 12.9 12.9 0.00 0.00 0.00 56 88.8
20260502041011 12 0 14.5 14.5 0.00 0.00 0.00 56 88.8
20260502040012 12 0 12.9 12.9 0.00 0.00 0.00 55 88.8
20260502035011 12 22 12.9 12.9 0.00 0.00 0.00 54 88.8
20260502034011 12 22 14.5 14.5 0.00 0.00 0.00 53 88.8
20260502033012 13 22 11.3 11.3 0.00 0.00 0.00 52 88.8
20260502032012 13 0 9.7 9.7 0.00 0.00 0.00 50 88.8
20260502031011 13 22 12.9 12.9 0.00 0.00 0.00 50 88.8
20260502030012 14 0 9.7 9.7 0.00 0.00 0.00 50 88.8
20260502025012 15 338 11.3 11.3 0.00 0.00 0.00 48 88.8
20260502024012 16 292 12.9 12.9 0.00 0.00 0.00 46 88.8
20260502023011 16 22 16.1 16.1 0.00 0.00 0.00 44 88.8
20260502022012 16 0 16.1 16.1 0.00 0.00 0.00 43 88.8
20260502021011 17 22 22.5 22.5 0.00 0.00 0.00 42 88.8
20260502020012 17 0 14.5 14.5 0.00 0.00 0.00 41 88.8
20260502015012 18 0 20.9 20.9 0.00 0.00 0.00 40 88.8
20260502014012 18 0 25.7 25.7 0.00 0.00 0.00 40 88.8
20260502013012 19 22 30.6 30.6 0.00 0.00 0.00 38 88.8
20260502012011 20 338 19.3 19.3 0.00 0.00 0.00 36 88.8
20260502011011 20 315 25.7 25.7 0.00 0.00 0.00 35 88.8
20260502010012 21 315 27.4 27.4 0.00 0.00 0.00 34 88.8
20260502005011 21 338 29.0 29.0 0.00 0.00 0.00 33 88.8
20260502004012 21 315 32.2 32.2 0.00 0.00 0.00 32 88.8
20260502003012 22 292 32.2 32.2 0.00 0.00 0.00 30 88.8
20260502002011 22 270 35.4 35.4 0.00 0.00 0.00 30 88.8
20260502001011 22 292 25.7 25.7 0.00 0.00 0.00 31 88.8
20260502000011 22 270 11.3 11.3 0.00 0.00 0.00 30 88.8
20260501235011 22 270 12.9 12.9 0.00 0.00 0.00 30 88.8
20260501234012 22 270 27.4 27.4 0.00 0.00 0.00 28 88.8